GFSNGP_con_3kmhel_102.txt.gz
Helicity
282 218 139 95 106 28 140 97 15 63 70 65 -15 7 25 36 61 89 155 174 195 194 201 227 248 267 266 251 178 292 366 344 233 82 66 68 83 89 118 111 108 127 116 102
342 141 89 88 87 244 268 167 43 33 71 26 -24 -2 41 56 67 94 127 146 176 206 203 207 238 225 233 241 189 238 267 312 305 292 142 110 120 154 166 183 165 165 136 130
139 16 61 148 122 139 208 145 69 66 23 5 -3 27 55 72 69 93 109 127 175 217 219 197 187 185 203 198 200 173 155 336 327 325 264 237 203 251 239 229 226 210 178 159
142 321 218 39 23 14 95 111 63 32 13 30 -27 -21 10 47 69 85 109 125 168 190 211 191 164 175 167 165 196 182 196 206 377 332 350 313 306 346 301 270 300 254 215 195
107 90 4 52 68 84 86 68 76 25 -14 2 -6 -30 47 80 56 54 68 87 104 122 136 141 167 189 149 171 190 262 276 235 258 478 368 383 442 455 325 342 352 306 271 241
72 55 22 47 169 26 -54 33 56 13 -18 -24 -18 -35 42 56 40 40 52 74 113 115 85 122 153 127 143 205 223 213 276 266 273 311 600 544 498 506 451 421 398 359 320 321
80 27 30 141 155 51 22 5 34 10 -4 -6 -45 -28 -11 -4 24 41 42 53 55 66 83 103 93 73 89 105 221 258 199 189 253 282 358 328 636 622 492 451 437 422 408 384
66 46 42 119 18 23 6 18 13 10 -7 -1 -17 -32 -35 -16 7 25 40 52 77 75 93 109 121 104 96 118 97 81 110 165 219 229 207 252 359 581 558 462 448 475 444 426
48 22 36 29 27 18 19 26 13 20 7 -9 -26 -20 -17 0 6 21 33 41 53 55 63 100 120 114 101 93 70 72 71 102 134 154 197 182 204 257 375 467 464 369 336 394
13 16 27 6 9 9 21 23 20 20 19 14 0 0 7 10 13 16 28 34 29 41 69 84 98 86 59 60 50 27 47 65 68 99 128 153 143 153 146 180 256 283 286 279
28 10 14 16 16 14 26 25 30 25 27 31 19 26 19 22 23 14 8 20 31 31 39 57 63 76 80 54 24 14 19 -3 15 17 43 60 98 108 119 150 131 147 186 228
4 7 26 12 11 25 29 26 23 30 33 40 26 31 31 22 6 8 18 29 37 40 38 46 65 74 80 68 45 36 23 11 6 -16 -10 6 18 49 141 145 176 198 190 129
-5 29 51 24 19 16 46 41 41 40 44 50 37 30 28 31 33 34 36 35 30 23 24 32 40 47 68 63 25 25 27 24 16 20 17 21 30 42 51 105 183 234 203 198
13 10 16 -13 21 43 43 53 68 62 42 39 39 41 39 30 22 22 25 10 14 19 34 41 51 64 48 34 27 32 32 43 23 18 17 22 26 33 42 69 91 128 192 189
0 1 41 25 7 17 22 34 52 46 39 42 28 23 21 24 21 14 7 19 26 50 70 76 91 104 93 71 51 43 33 36 43 49 44 41 50 66 74 90 99 93 108 129
5 19 5 1 0 11 24 43 46 26 24 20 18 17 17 20 19 27 32 39 43 59 64 77 96 99 97 102 91 78 77 95 94 78 75 70 67 69 80 111 134 137 137 127
26 48 56 46 64 48 45 27 21 11 4 4 7 12 27 35 43 44 42 48 64 73 81 97 98 110 141 142 122 101 93 104 116 111 101 81 71 68 78 99 108 111 117 120
61 59 61 99 83 63 39 21 9 6 9 18 29 44 57 62 49 36 38 43 65 90 97 95 80 101 135 152 130 119 103 98 104 106 106 110 98 79 60 77 91 93 98 106
145 138 104 83 57 42 21 19 19 30 33 34 42 41 34 33 38 39 44 60 59 100 76 81 103 117 151 150 129 121 133 138 133 122 105 98 109 97 82 71 68 76 78 79
135 121 95 63 28 44 56 32 35 37 21 44 50 46 46 31 32 40 56 70 48 61 42 74 95 125 137 137 132 114 118 130 133 139 137 129 129 125 102 93 70 53 44 39
87 82 61 48 49 37 32 26 47 51 38 49 52 42 41 37 59 73 83 85 44 50 82 96 102 109 121 119 111 115 122 125 122 112 117 119 115 102 115 114 103 88 79 55
69 45 45 46 47 31 14 26 46 44 29 31 44 56 70 86 84 88 78 93 71 66 92 97 103 104 108 118 120 111 109 112 97 94 108 98 90 81 78 79 74 52 64 64
33 36 40 38 33 29 29 35 23 30 40 51 66 67 70 81 97 121 101 89 96 90 89 101 98 112 118 121 121 113 104 93 82 80 79 77 77 82 70 65 60 52 59 47
46 33 28 31 55 61 43 13 18 28 48 42 47 62 74 102 101 95 97 92 66 79 88 79 78 72 90 106 106 110 102 103 88 89 80 65 66 75 71 65 63 64 66 52
46 48 48 60 63 41 32 48 57 42 54 59 62 77 88 121 139 107 101 85 77 94 96 80 78 76 90 84 82 86 95 97 85 92 90 84 77 68 61 62 67 65 62 63
64 41 42 49 54 57 56 84 94 66 94 111 131 143 140 141 141 142 141 122 120 122 117 109 108 107 105 91 78 78 83 81 78 79 79 78 80 76 69 65 68 62 60 63
52 63 68 59 69 103 125 139 155 136 146 160 163 151 154 179 189 160 148 147 141 141 128 116 113 112 109 109 110 101 105 93 85 90 86 78 78 70 70 68 72 73 75 79

GFSNGP_con_3kmhel_105.txt.gz
Helicity
229 187 140 91 106 116 58 118 15 44 -4 32 31 4 12 23 59 109 155 174 209 254 285 288 297 317 305 306 340 282 360 468 421 444 163 95 80 54 63 52 87 92 121 142
255 127 30 92 125 180 170 136 46 42 29 27 4 13 59 71 97 134 168 197 239 253 278 287 273 259 257 276 261 228 293 393 330 359 356 336 219 118 110 136 176 192 224 208
120 36 22 124 121 114 212 196 75 44 6 -1 6 40 74 93 100 111 113 149 210 255 266 248 225 207 229 224 202 177 175 248 245 296 323 314 289 228 213 175 182 214 237 198
63 48 149 43 12 13 27 113 61 30 9 -7 -6 -19 15 44 60 97 124 154 171 164 182 208 202 188 171 153 166 220 174 268 296 287 230 324 300 321 300 259 262 229 214 197
72 150 82 94 22 39 55 60 88 26 1 -23 7 -40 21 64 47 44 68 88 101 108 111 122 165 184 155 194 185 198 231 185 241 188 177 192 380 364 363 388 354 321 260 239
124 110 120 34 63 37 -12 63 64 37 2 -18 -26 -10 21 53 31 26 31 41 66 70 66 112 135 93 99 160 219 302 204 183 213 214 220 151 229 283 477 391 457 372 376 309
72 29 31 99 102 67 12 12 27 -2 -10 5 -37 -42 -29 -17 4 11 19 43 50 59 77 96 95 64 86 88 133 125 159 137 155 225 156 216 214 261 111 387 442 472 472 413
56 47 43 75 20 19 8 19 4 -20 -29 -24 -28 -35 -36 -21 -8 0 18 36 48 34 48 64 80 71 75 99 69 40 32 57 92 130 160 176 208 246 293 307 217 505 497 496
36 24 53 61 65 60 41 16 -7 5 -10 -11 -27 -26 -31 -26 -16 -2 11 25 30 33 27 39 57 46 44 48 20 38 44 61 69 67 70 88 145 171 181 232 145 185 230 573
48 53 46 34 31 34 39 25 13 11 8 6 9 -11 -12 -10 -5 7 25 36 38 42 54 63 63 43 35 32 21 1 14 39 42 52 81 92 69 70 104 117 138 165 136 181
55 32 22 25 14 10 18 18 30 20 12 6 15 9 -2 -7 -1 -4 2 14 21 23 34 50 53 59 63 54 21 3 5 4 1 -4 22 38 60 81 62 88 94 40 60 81
20 8 14 -6 -1 -2 11 12 13 21 22 18 11 2 -4 -1 7 14 20 19 23 25 30 44 43 48 52 45 16 1 0 -1 -5 -13 -5 3 10 23 104 158 183 175 146 89
6 20 38 38 25 18 39 25 23 29 24 26 19 -2 17 10 16 17 18 20 15 8 12 20 26 36 50 37 13 11 4 2 5 19 15 16 19 25 41 52 112 200 192 167
57 76 44 11 -1 24 38 33 44 19 20 20 24 16 17 20 19 23 26 8 8 13 18 15 22 27 23 17 18 22 20 27 6 10 22 37 43 52 57 69 81 101 116 145
23 36 39 64 42 25 36 23 25 16 15 25 39 19 16 23 24 17 3 9 10 21 33 33 44 51 46 21 21 21 18 17 14 15 19 26 42 70 82 89 98 108 115 123
51 69 47 29 20 15 22 9 25 21 10 30 33 17 19 17 15 17 19 24 18 18 21 34 46 46 49 51 47 48 45 64 65 56 57 57 52 53 66 84 102 111 124 135
65 20 9 3 3 10 -2 -12 15 6 12 28 20 17 20 27 28 24 25 28 31 34 36 43 45 47 59 69 64 60 60 72 84 83 78 71 76 79 64 55 51 66 83 89
6 14 8 47 44 36 5 4 6 9 18 22 30 42 52 56 43 36 30 23 45 57 67 59 48 63 81 94 88 83 86 94 100 96 84 82 73 83 86 77 73 60 51 63
81 88 67 44 50 37 11 7 7 28 32 30 43 50 39 33 25 23 24 58 74 69 61 82 77 95 107 109 106 103 111 121 125 120 108 106 107 84 80 80 73 62 45 49
125 102 94 75 34 16 27 19 34 44 27 41 45 41 30 13 28 44 65 69 66 58 63 76 89 103 110 114 122 113 125 136 135 132 132 123 118 108 88 79 70 67 69 54
86 70 48 27 36 35 32 19 35 23 11 28 33 21 26 26 47 82 103 96 69 57 53 80 104 100 109 117 122 125 129 134 138 134 144 128 116 108 103 88 68 57 50 47
64 53 33 40 49 40 18 23 32 36 29 28 24 43 57 75 91 89 87 111 104 100 101 104 109 107 102 115 125 128 125 118 112 117 119 113 108 99 90 83 70 60 53 38
65 42 42 41 37 34 35 31 28 38 36 37 51 54 68 85 102 133 124 115 120 106 113 105 108 107 110 124 133 127 119 117 103 98 95 91 82 81 87 79 73 73 64 53
69 62 49 46 58 63 49 16 32 40 46 61 67 82 94 109 119 123 122 116 113 106 104 105 108 106 112 121 119 114 118 111 109 102 99 89 86 78 75 73 75 75 81 75
83 90 74 62 50 43 48 59 71 67 86 93 96 99 103 147 173 140 149 133 119 129 128 121 114 111 128 129 122 121 115 114 113 118 112 108 101 94 81 71 57 61 68 71
98 75 49 42 54 55 62 90 93 97 117 130 124 118 126 141 162 162 163 166 156 146 153 148 148 139 135 133 136 135 131 125 123 119 119 117 115 108 91 75 67 63 64 67
100 82 71 78 64 74 98 111 126 121 136 150 136 125 142 160 171 175 182 181 173 171 163 149 148 144 141 137 141 141 143 141 132 131 131 121 124 116 97 92 90 80 74 71

GFSNGP_con_3kmhel_108.txt.gz
Helicity
148 183 88 7 -16 111 100 59 38 113 62 46 33 13 38 58 71 90 136 181 214 246 298 289 289 302 299 359 347 385 324 477 436 365 472 381 322 246 192 109 67 67 74 96
159 76 6 26 52 58 242 148 84 44 27 28 -1 9 48 87 109 121 150 172 221 262 296 281 253 252 272 306 322 326 347 389 431 390 578 487 382 356 276 274 261 224 193 151
53 77 51 68 112 85 98 138 73 33 12 3 15 39 82 108 112 136 156 162 190 220 209 215 215 189 220 229 256 307 257 231 340 245 455 467 398 364 320 278 256 265 220 162
13 28 38 47 60 22 65 103 60 25 16 10 2 9 25 68 75 103 133 162 165 160 182 195 208 235 184 189 200 283 345 329 309 207 167 264 264 301 342 273 264 252 252 243
19 65 82 59 56 51 87 87 49 8 -9 -18 47 2 37 77 61 61 73 82 74 82 94 117 162 167 124 160 213 202 194 185 173 124 220 206 192 217 144 201 296 311 307 282
88 86 43 48 33 22 42 43 56 27 -15 -19 -20 -13 12 70 47 38 35 47 61 60 56 105 133 95 101 118 134 245 265 155 122 82 151 153 148 173 203 129 82 139 380 413
136 99 62 40 79 41 26 -5 7 13 0 -28 -35 -30 -18 0 12 16 15 28 31 44 67 91 104 76 85 112 172 84 55 103 169 182 139 165 140 108 122 157 201 221 166 135
24 62 50 73 47 13 17 19 2 -4 -15 -17 -21 -14 -25 -20 -5 7 20 22 35 19 34 41 53 38 55 89 69 60 54 65 85 84 78 92 97 143 144 77 150 231 229 94
35 31 56 82 76 65 39 10 -1 1 -12 -12 -20 -24 -24 -19 -10 -1 11 18 18 27 24 50 56 40 47 42 8 5 27 37 33 35 59 65 85 82 66 74 52 47 90 156
20 34 31 32 41 61 54 28 20 12 6 8 4 -8 -7 -8 -7 1 13 28 32 24 43 64 77 53 38 31 -6 -2 7 13 14 10 17 35 28 33 50 46 38 45 48 47
50 18 27 37 35 33 43 45 45 28 13 8 13 7 -8 -5 0 4 6 16 18 17 18 27 28 30 32 23 -8 -20 -19 -10 -6 -7 -2 -24 -27 1 2 37 39 25 31 48
39 7 28 -3 -3 21 33 29 15 32 29 12 2 2 10 10 0 4 6 4 4 7 9 17 11 14 24 12 -7 -21 -20 -16 -12 -16 -18 -14 -14 -18 59 90 120 130 128 81
26 36 29 30 33 35 42 23 25 26 23 25 10 9 6 1 -6 -6 0 1 6 3 2 6 14 16 25 16 -5 -9 -19 -17 -24 -18 -17 -5 4 15 33 46 103 150 158 165
66 76 61 41 23 47 46 28 33 31 21 18 21 7 -15 -4 2 -2 4 -8 -2 -3 3 -7 -2 9 -3 -16 -8 -16 -16 -12 -28 -25 -30 -20 -12 0 2 24 44 76 98 142
80 56 50 68 81 63 31 21 25 25 12 5 11 1 -8 4 13 1 -8 1 4 7 5 -3 2 7 0 -15 -6 -15 -24 -26 -30 -31 -25 -13 -4 13 21 31 38 49 72 104
58 71 68 69 53 33 18 11 14 7 -3 -7 -1 4 2 12 7 3 2 10 2 4 -9 -6 8 -1 0 3 1 2 -4 15 10 0 1 2 2 7 15 17 26 37 61 75
78 50 41 37 30 19 -1 -15 -9 -10 -10 -2 6 10 17 13 8 9 7 1 2 -7 5 17 9 5 17 26 16 13 16 26 35 36 36 24 22 21 10 14 12 10 16 28
33 23 14 24 25 17 7 -16 -13 0 -2 6 19 36 40 27 2 -2 -7 -3 21 27 31 25 18 30 42 43 40 39 40 44 51 51 58 67 54 49 44 32 29 26 20 36
42 41 36 42 38 21 -1 -3 2 20 18 19 33 24 2 -5 -1 -3 1 21 29 34 37 51 53 60 64 69 67 57 61 68 71 70 72 79 85 74 74 69 60 46 34 40
67 74 75 71 55 33 19 16 36 35 9 23 24 10 9 -1 3 7 12 22 19 18 24 49 72 76 76 83 89 73 76 83 86 88 90 87 96 94 90 87 71 61 52 40
90 82 79 67 38 26 28 19 40 30 11 19 28 17 7 5 35 32 50 59 31 47 58 71 91 89 82 87 92 95 96 94 93 101 96 88 89 85 79 72 62 48 37 37
85 71 60 37 47 53 24 26 42 46 37 29 33 29 42 47 50 52 48 68 68 84 91 96 97 98 92 87 88 88 84 86 85 84 75 72 74 69 61 60 59 52 44 41
70 77 51 51 48 42 37 36 40 39 37 27 25 34 55 61 77 98 95 88 98 97 106 102 93 86 84 105 108 107 103 105 92 85 77 78 71 72 76 71 66 65 60 57
96 82 78 73 81 65 53 28 31 42 37 37 41 55 81 93 87 96 99 110 125 125 120 114 105 104 119 131 130 129 127 124 117 111 107 98 102 93 90 85 76 71 71 68
110 108 101 90 66 55 57 45 57 58 58 59 64 86 86 108 133 130 149 133 129 146 138 135 131 126 133 135 133 142 145 149 144 142 138 132 121 115 107 103 92 75 64 65
120 110 90 71 67 65 53 72 77 68 87 96 95 112 136 135 127 121 125 134 157 163 161 159 154 146 138 132 138 140 142 143 146 144 137 134 131 129 125 120 105 85 79 73
156 165 124 109 89 62 69 87 97 86 102 120 129 112 132 124 121 128 144 164 180 182 173 167 165 155 147 153 149 147 144 141 144 152 141 132 127 129 119 119 111 101 97 87

GFSNGP_con_3kmhel_111.txt.gz
Helicity
51 -2 -25 -10 -8 -55 -29 81 21 47 75 69 27 43 41 50 77 105 124 179 222 245 284 293 253 272 267 305 396 439 505 390 404 321 442 502 545 512 484 483 482 501 436 422
26 -52 -73 3 10 0 131 175 150 99 58 25 26 35 64 89 125 147 163 157 180 222 270 290 290 258 290 307 249 355 373 410 493 491 432 587 569 567 492 465 383 341 435 412
-21 6 -18 17 48 27 53 115 60 20 -14 -10 50 58 59 99 120 146 174 201 222 223 244 270 268 258 244 243 245 289 381 380 332 484 304 553 670 476 453 433 460 510 318 273
50 30 35 14 16 27 39 71 71 47 -7 27 26 21 38 82 94 112 133 158 160 155 162 197 206 239 215 233 236 257 283 311 350 369 357 343 336 608 542 369 366 333 302 219
29 26 23 23 36 54 66 61 42 -2 11 13 32 36 44 86 77 74 79 79 97 72 56 87 136 142 127 175 238 311 354 329 316 301 292 311 270 166 237 208 259 272 217 172
43 18 16 31 31 46 55 59 48 30 -1 -9 4 -10 28 81 65 60 50 54 59 63 46 92 133 92 100 141 165 230 255 193 133 128 185 225 205 199 131 76 103 137 181 258
70 74 39 51 76 46 54 23 21 30 16 -5 -12 -10 6 30 26 22 24 48 55 37 52 63 76 62 99 116 175 100 56 50 79 84 92 100 102 121 132 147 117 127 142 131
123 76 46 67 55 29 26 24 22 31 30 43 13 8 2 5 11 17 11 24 57 49 56 65 65 46 48 74 38 30 21 20 35 38 23 29 37 43 58 53 85 119 138 170
114 71 63 111 82 58 39 20 20 15 0 -3 2 2 -10 -7 4 2 1 2 9 18 26 49 52 32 35 22 22 11 10 21 16 1 4 14 33 42 42 44 31 35 39 56
37 52 82 82 75 68 48 45 29 8 -7 5 14 -2 -3 -5 -4 -1 6 6 -5 -6 14 25 32 21 10 4 -9 3 17 21 9 7 8 10 -4 -4 3 23 16 19 28 29
38 36 46 62 50 45 58 57 50 27 18 21 24 13 0 4 0 -5 -7 -9 -5 -2 1 11 10 16 27 15 -5 -16 -15 -9 -9 -15 -13 -26 -25 -5 -14 14 30 8 10 12
39 8 36 37 40 35 37 32 29 33 32 18 12 12 16 16 -5 -8 -5 -8 -6 -10 -14 -15 -14 -6 2 -1 -9 -21 -16 -14 -11 -12 -15 -20 -29 -29 36 61 90 107 111 75
50 41 55 51 34 26 37 31 28 29 24 27 15 8 5 4 1 8 10 8 4 -3 -9 -15 -10 -5 -6 -8 -16 -12 -16 -15 -19 -12 -8 2 8 10 11 17 60 101 122 126
82 85 82 17 18 24 35 39 46 37 28 22 20 5 3 8 11 15 11 0 -3 -9 4 9 14 16 0 -8 -3 -11 -17 -17 -26 -22 -15 -6 3 9 15 37 54 63 92 121
54 49 36 40 50 39 34 39 34 24 24 28 19 21 16 16 27 16 -4 -8 -8 6 8 -1 4 11 2 -1 9 6 -5 -15 -20 -14 -8 -3 4 16 23 35 41 50 56 95
38 50 55 58 49 38 33 22 30 22 16 18 20 19 19 12 6 5 1 -1 -6 -9 -19 -19 -6 -7 1 9 12 10 5 18 10 11 16 24 29 41 48 57 63 68 75 91
60 44 41 39 38 29 20 20 19 16 11 11 15 15 11 8 1 -9 -14 -19 -11 -12 -7 3 4 5 22 42 45 38 31 35 34 36 37 39 45 54 59 68 73 68 55 44
43 37 20 33 27 25 24 25 25 18 9 16 23 22 16 -2 -7 -12 -15 -25 -3 18 26 14 10 26 40 54 62 62 62 62 63 65 66 73 72 72 69 70 68 71 53 41
38 35 21 21 27 33 16 35 31 24 25 27 22 14 8 -3 -9 -14 -13 6 26 25 28 19 20 20 49 66 65 64 73 77 78 76 76 81 88 84 85 95 93 85 71 64
43 41 47 50 49 36 40 58 50 46 34 30 35 19 2 -8 -13 -16 -4 10 11 15 11 11 26 49 61 63 58 67 72 80 85 82 83 85 101 91 79 77 67 63 59 51
59 57 66 68 61 68 69 51 48 37 22 20 21 11 10 4 -14 -7 9 19 24 9 10 25 49 73 75 80 84 92 94 94 91 85 95 88 77 76 61 56 58 59 56 57
66 77 83 74 76 88 63 49 54 58 40 32 24 14 1 -13 2 5 -4 17 42 45 58 74 84 90 88 88 91 90 87 85 81 89 81 72 65 63 60 59 61 63 58 56
86 86 83 74 77 75 65 49 44 42 41 37 28 17 7 31 42 50 66 65 70 77 88 100 99 94 100 104 108 105 101 103 111 107 100 97 90 81 72 63 63 64 64 61
90 79 100 116 129 101 72 40 41 41 34 28 26 36 40 53 62 54 59 83 95 103 111 125 117 114 115 121 118 114 115 121 122 126 122 118 116 116 110 98 83 69 67 61
91 117 123 108 78 64 75 67 71 53 42 47 55 58 51 60 73 93 89 101 107 122 147 161 150 150 152 144 136 136 143 143 146 147 143 142 134 123 110 100 100 94 87 70
101 100 96 80 75 82 83 78 65 57 65 73 73 78 87 88 85 84 108 128 145 159 166 168 167 157 154 154 153 156 156 160 164 163 162 159 148 130 114 107 99 88 91 84
122 140 144 122 103 97 90 81 79 79 77 85 105 96 98 111 119 121 134 146 156 165 167 165 163 164 157 158 160 163 164 163 162 157 150 144 136 130 125 117 107 98 89 71

GFSNGP_con_3kmhel_114.txt.gz
Helicity
-17 -2 -1 -8 -3 -10 -24 -10 33 26 80 30 -3 -14 20 38 65 93 131 166 195 225 240 244 199 228 247 301 431 505 355 466 555 413 451 535 612 578 569 600 588 569 587 609
15 -26 -23 28 -33 -47 -58 -64 81 92 85 -6 -34 -6 52 68 93 126 153 171 215 238 228 254 258 261 287 254 316 374 439 385 488 503 440 596 702 736 751 681 679 645 606 526
26 17 1 -33 -28 -26 14 70 46 41 19 -27 29 64 65 77 91 114 138 144 135 153 169 191 196 204 229 237 222 267 370 341 361 505 444 553 523 849 891 796 694 644 562 389
16 -22 2 -22 -18 1 31 48 30 58 -12 31 50 42 52 62 85 92 102 119 118 106 109 113 82 101 77 145 226 250 248 259 283 295 347 223 469 431 630 505 637 601 473 432
-19 -2 -7 -25 -9 -5 20 19 35 1 -23 -18 -4 17 50 71 68 65 67 61 62 41 37 50 85 74 70 110 138 237 323 244 230 200 192 192 255 285 320 385 462 496 410 428
-7 20 11 31 15 20 30 15 -6 -1 -13 1 9 14 17 46 50 48 49 42 45 26 7 33 56 48 85 117 141 169 133 104 113 127 135 171 175 117 122 141 189 196 175 201
0 17 7 39 35 24 35 36 13 6 12 11 4 28 4 15 27 29 38 55 41 45 48 44 30 13 41 73 113 31 13 31 43 53 65 61 35 58 60 87 99 94 110 142
52 38 3 70 63 39 26 48 37 30 21 45 29 18 11 1 6 16 25 42 56 41 40 36 44 32 35 51 20 -1 -1 13 34 40 35 30 29 30 48 36 29 26 27 26
127 98 64 127 100 55 44 42 38 34 11 15 14 11 3 -4 -2 -2 5 11 12 15 21 37 36 32 23 13 13 -7 -13 -1 -4 1 15 17 31 38 40 43 31 33 35 29
38 41 72 105 112 95 67 54 41 32 22 17 27 20 14 -2 -2 0 7 4 0 1 11 17 25 24 10 1 -10 -10 -15 -26 -30 -23 -11 4 -10 -10 3 19 12 20 20 33
66 70 96 109 87 70 75 74 58 47 33 29 25 14 5 4 1 -1 1 3 2 1 5 10 6 4 0 2 -7 -11 -8 -13 -14 -20 -20 -33 -36 -49 -47 -24 -5 -10 -6 -10
32 22 76 61 57 59 65 61 52 46 43 35 16 9 10 10 0 5 10 7 10 9 0 -1 -4 -1 3 -1 -5 -11 -16 -17 -15 -19 -23 -24 -28 -21 30 23 45 59 67 53
43 72 61 75 61 54 66 54 43 38 35 31 19 20 17 19 16 16 15 11 10 5 7 0 -6 -9 -14 -9 -9 -3 -6 -12 -8 2 1 6 9 10 8 9 46 75 101 107
77 96 103 54 68 63 61 52 39 40 39 32 31 19 20 19 15 18 17 7 -3 -3 -6 -17 -22 -25 -40 -34 -22 -25 -16 5 -2 4 7 11 14 13 15 32 47 60 88 111
45 89 61 62 63 58 50 37 40 42 36 40 30 26 25 27 27 19 8 4 -1 2 0 -13 -14 -16 -27 -29 -6 7 3 2 3 11 14 15 22 28 38 52 65 78 97 127
56 59 61 54 53 50 36 32 34 32 33 37 32 28 30 28 25 19 15 12 7 2 -9 -12 -10 -19 -13 -3 9 22 33 51 42 47 53 65 72 83 91 95 99 106 121 141
58 46 47 46 43 34 27 32 28 24 29 27 28 25 30 25 18 12 11 10 0 -15 -15 -3 -7 -2 3 19 15 32 40 60 56 56 60 57 62 82 88 98 116 127 135 133
28 18 19 32 38 47 49 33 32 31 31 39 39 29 22 10 26 21 15 -8 -22 -7 1 9 12 18 35 37 25 55 82 83 79 86 94 106 106 108 100 93 95 109 92 83
28 26 30 33 48 59 48 36 33 47 61 48 39 23 25 31 32 24 2 -16 -20 -8 22 21 23 22 31 40 42 91 97 96 101 114 116 106 113 108 105 108 111 105 99 92
48 50 56 65 64 54 56 62 53 69 61 49 50 29 29 35 26 11 -1 -13 7 29 23 13 6 19 37 67 50 91 92 102 114 123 131 109 117 114 109 98 94 97 100 96
54 56 68 78 82 80 79 58 68 65 60 53 34 29 47 50 39 26 15 10 50 26 12 9 1 38 51 73 70 117 111 113 114 114 110 122 106 105 103 104 104 102 100 96
60 53 66 81 89 97 88 77 72 79 70 59 56 60 60 53 40 17 -9 13 65 59 26 41 55 97 90 96 104 113 113 106 110 114 118 117 118 119 119 120 116 109 103 93
68 61 71 84 93 99 97 83 75 71 62 50 56 58 56 60 41 31 38 78 48 80 53 77 125 108 105 97 119 121 121 123 120 129 131 135 141 140 137 127 127 119 104 98
86 88 103 116 119 110 100 87 86 80 73 78 78 72 64 60 57 54 64 106 91 81 83 134 123 123 110 131 136 135 128 134 141 151 150 141 142 151 146 147 134 122 109 102
104 114 108 99 98 97 98 96 99 83 84 90 81 74 61 62 67 103 86 85 95 83 126 172 155 147 150 149 152 144 138 145 167 152 160 162 159 161 154 150 150 135 122 111
92 93 92 95 103 110 117 101 90 94 95 93 86 84 91 94 98 90 100 111 122 127 148 159 165 149 154 148 136 145 149 152 158 162 156 149 154 148 149 151 146 140 139 132
107 124 143 140 132 127 114 101 111 114 99 95 106 104 109 107 113 107 116 124 133 144 146 153 155 154 144 136 148 146 145 150 161 152 145 150 149 152 157 150 150 150 144 144